Hourly Data Report for October 08, 2014

All times are specified in Local Standard Time (LST). Add 1 hour to adjust for Daylight Saving Time where and when it is observed.

QIKIQTARJUAQ A
NUNAVUT

67°32'48.000" N
64°01'54.000" W
5.50 m
2400577
YVM

Download Data

Hourly Data (October 2014)
Hourly Data Report for October 8, 2014
Temp Definition
°C
Dew Point Temp Definition
°C
Rel Hum Definition
%
Wind Dir Definition
10's deg

Wind Spd Definition
km/h
Visibility Definition
km
Stn Press Definition
kPa
Hmdx Definition


Wind Chill Definition


Weather Definition


TIME
00:00 Legend Double Dagger -1.1 -3.7 83 1 13 16.1 102.47   -5 LegendNANA
01:00 Legend Double Dagger -1.1 -4.4 78 2 13 16.1 102.44   -5 LegendNANA
02:00 Legend Double Dagger -0.9 -4.2 78 35 18 16.1 102.41   -6 LegendNANA
03:00 Legend Double Dagger -1.0 -4.9 75 31 15 16.1 102.38   -6 LegendNANA
04:00 Legend Double Dagger -0.9 -5.9 69 35 9 16.1 102.35   -4 LegendNANA
05:00 Legend Double Dagger -1.0 -6.3 68 32 13 16.1 102.34   -5 LegendNANA
06:00 Legend Double Dagger -2.2 -6.4 73 13 9 16.1 102.33   -6 LegendNANA
07:00 Legend Double Dagger -2.0 -6.1 74 35 11 16.1 102.32   -6 LegendNANA
08:00 Legend Double Dagger -2.3 -4.3 86 4 8 9.7 102.30   -5 Snow
09:00 Legend Double Dagger -2.6 -4.2 89 12 5 4.0 102.28   -5 Snow
10:00 Legend Double Dagger -2.0 -4.8 81 20 5 16.1 102.25   -4 LegendNANA
11:00 Legend Double Dagger -2.1 -4.9 81 19 8 16.1 102.19   -5 LegendNANA
12:00 Legend Double Dagger -1.7 -5.0 78 18 5 16.1 102.17   -4 LegendNANA
13:00 Legend Double Dagger -1.9 -5.4 77   0 16.1 102.15     LegendNANA
14:00 Legend Double Dagger -1.6 -5.8 73 20 9 16.1 102.12   -5 LegendNANA
15:00 Legend Double Dagger -1.1 -6.4 68 31 5 16.1 102.10   -3 LegendNANA
16:00 Legend Double Dagger -2.1 -5.6 77 14 8 16.1 102.08   -5 LegendNANA
17:00 Legend Double Dagger -2.1 -6.1 74 14 8 16.1 102.05   -5 LegendNANA
18:00 Legend Double Dagger -1.8 -5.2 78 LegendMM 4 16.1 102.05   -3 Snow
19:00 Legend Double Dagger -2.1 -5.2 80 12 5 16.1 101.99   -4 LegendNANA
20:00 Legend Double Dagger -2.4 -4.3 87 1 5 2.4 101.96   -4 Snow
21:00 Legend Double Dagger -2.5 -3.6 92   0 2.4 101.93     Snow
22:00 Legend Double Dagger -2.7 -4.0 91 20 8 16.1 101.88   -6 Snow
23:00 Legend Double Dagger -2.2 -4.5 85   0 16.1 101.84     LegendNANA

Notes on Data Quality.

Legend

  • E = Estimated
  • M = Missing
  • NA = Not Available
  • ‡ = Partner data that is not subject to review by the National Climate Archives
Date modified: